[[{"header":{"parameterUnit":"m.s-1","parameterCategory":1,"la1":30.2991,"la2":30.254,"lo1":-89.0895,"lo2":-89.0444,"dy":0.0017,"dx":0.0017,"nx":28,"ny":28,"refTime":"2024-04-06T09:00:00:Z","depth":0,"parameterNumber":2,"parameterNumberName":"U-component_of_WINDS"},"data":[0,0,0,0,0,0,0,0,0,0,0,0,0,0,0,0,0,0,0,0,0,0,0,0,0,0,0,0,0,0,0,0,0,0,0,0,0,0,0,0,0,0,0,0,0,0,0,0,0,0,0,0,0,0,0,0,0,0,-3.0432,-3.0433,0,-3.0533,-3.0534,-3.0535,-3.0558,-3.0557,-3.0557,-3.0556,-3.0658,-3.0661,-3.0664,0,0,0,0,0,0,0,0,0,0,0,0,0,-3.026,-3.0263,-3.0432,-3.0433,-3.0435,-3.0533,-3.0534,-3.0535,-3.0558,-3.0557,-3.0557,-3.0556,-3.0657,-3.0661,-3.0665,0,0,0,0,0,0,0,0,0,0,0,0,0,-3.0345,-3.0264,-3.0432,-3.0458,-3.0461,-3.0532,-3.0534,-3.0536,-3.0558,-3.0557,-3.0556,-3.0555,-3.0655,-3.066,-3.0665,-3.0717,0,0,-3.0681,-3.0683,0,0,0,0,0,0,0,0,-3.034,-3.0351,-3.0453,-3.0456,-3.046,-3.0532,-3.0511,-3.0597,-3.0559,-3.0522,-3.0556,-3.0555,-3.0617,-3.0625,-3.0646,-3.0722,-3.0726,-3.0681,-3.0684,-3.0686,-3.0688,0,0,0,0,0,0,0,-3.0334,-3.0347,-3.0472,-3.0454,-3.0459,-3.0465,-3.0476,-3.0527,-3.0574,-3.0525,-3.0527,-3.0538,-3.0618,-3.0641,-3.0649,-3.0728,-3.0681,-3.0685,-3.0689,-3.0691,-3.0852,-3.0853,0,0,0,0,0,0,-3.0324,-3.0342,-3.0469,-3.0475,-3.0396,-3.0469,-3.0481,-3.051,-3.0573,-3.0582,-3.0539,-3.0539,-3.0633,-3.0643,-3.0652,-3.0716,-3.0686,-3.0691,-3.0694,-3.085,-3.0852,-3.0853,0,0,0,0,0,0,-3.032,-3.0335,-3.0465,-3.0409,-3.0426,-3.0473,-3.0505,-3.0512,-3.0535,-3.0584,-3.0592,-3.0553,-3.0633,-3.0645,-3.0701,-3.072,-3.0693,-3.0698,-3.0849,-3.0851,-3.0853,-3.0846,0,0,0,0,0,0,-3.0315,-3.0333,-3.0354,-3.0409,-3.0429,-3.0512,-3.0506,-3.0515,-3.0544,-3.0545,-3.06,-3.0608,-3.0633,-3.0693,-3.0706,-3.0727,-3.0702,-3.0847,-3.085,-3.0852,-3.0844,-3.0847,-3.085,0,0,0,0,0,-3.0309,-3.0348,-3.0354,-3.037,-3.0455,-3.0513,-3.0524,-3.0552,-3.0545,-3.0566,-3.0597,-3.0606,-3.0717,-3.0699,-3.0713,-3.0736,-3.0846,-3.0849,-3.0852,-3.0843,-3.0847,-3.0849,0,0,0,0,0,0,-3.0292,-3.0355,-3.0364,-3.0422,-3.0462,-3.0517,-3.0543,-3.0555,-3.0597,-3.0596,-3.0629,-3.0641,-3.0695,-3.0721,-3.07,-3.079,-3.0781,-3.0787,-3.077,-3.0773,-3.0776,-3.0767,-3.0706,0,0,0,0,0,-3.0295,-3.0337,-3.039,-3.0436,-3.0456,-3.0496,-3.0522,-3.0541,-3.0583,-3.06,-3.0636,-3.0677,-3.0721,-3.0749,-3.0792,-3.0849,-3.0861,-3.0872,-3.0875,-3.0877,-3.088,-3.0912,-3.0917,-3.0862,-3.0862,-3.0862,0,0,-3.0302,-3.0342,-3.0366,-3.0434,-3.0467,-3.0509,-3.051,-3.0555,-3.0586,-3.0607,-3.0661,-3.069,-3.0737,-3.0794,-3.0821,-3.0818,-3.0899,-3.088,-3.0881,-3.0884,-3.0915,-3.0921,-3.0925,-3.0864,-3.0864,-3.0864,0,0,-3.0335,-3.037,-3.0412,-3.0446,-3.0496,-3.0523,-3.0533,-3.0587,-3.0606,-3.0662,-3.0678,-3.0716,-3.0791,-3.0825,-3.0851,-3.0899,-3.0908,-3.0912,-3.0925,-3.0955,-3.096,-3.0963,-3.0979,-3.0985,-3.0917,-3.0917,-3.0917,0,-3.0337,-3.0401,-3.0432,-3.0476,-3.0505,-3.0527,-3.0569,-3.06,-3.0662,-3.0682,-3.0678,-3.0773,-3.0807,-3.0871,-3.0883,-3.0904,-3.0916,-3.0905,-3.0957,-3.0961,-3.0965,-3.098,-3.0986,-3.0917,-3.0917,-3.0917,-3.0917,0,-3.0401,-3.0445,-3.0473,-3.0532,-3.0565,-3.0608,-3.0645,-3.0674,-3.069,-3.0717,-3.0774,-3.0816,-3.0867,-3.0885,-3.09,-3.0951,-3.0948,-3.095,-3.0942,-3.097,-3.0985,-3.0991,-3.0917,-3.0917,-3.0917,-3.0917,0,0,-3.0424,-3.0501,-3.051,-3.0537,-3.0596,-3.063,-3.0675,-3.0726,-3.075,-3.0793,-3.083,-3.0894,-3.0897,-3.0927,-3.0947,-3.0974,-3.1008,-3.0973,-3.0975,-3.0977,-3.1065,-3.1062,-3.1068,-3.1016,-3.1017,-3.1018,-3.1061,0,-3.0463,-3.0543,-3.0572,-3.0637,-3.0678,-3.07,-3.0739,-3.0778,-3.0805,-3.0844,-3.0874,-3.0918,-3.0919,-3.0938,-3.0966,-3.0998,-3.1026,-3.0995,-3.1049,-3.1051,-3.1035,-3.1076,-3.1073,-3.1111,-3.1067,-3.1068,-3.1069,0,-3.0519,-3.0562,-3.0631,-3.0684,-3.0703,-3.0737,-3.0786,-3.0823,-3.0869,-3.0887,-3.0922,-3.094,-3.0987,-3.0978,-3.1043,-3.1022,-3.1046,-3.1065,-3.1068,-3.1072,-3.106,-3.108,-3.1124,-3.1129,-3.1079,-3.1078,-3.1077,0,-3.0527,-3.0603,-3.0654,-3.0677,-3.0741,-3.0764,-3.0791,-3.0836,-3.0865,-3.0909,-3.0928,-3.0976,-3.1002,-3.1039,-3.1071,-3.1061,-3.1132,-3.1126,-3.1148,-3.1147,-3.116,-3.1158,-3.1206,-3.1179,-3.1179,-3.1178,-3.1178,0,-3.0567,-3.0608,-3.0659,-3.069,-3.0736,-3.077,-3.0816,-3.0845,-3.0885,-3.0922,-3.0945,-3.0979,-3.1019,-3.1059,-3.1084,-3.1133,-3.1145,-3.116,-3.1166,-3.1157,-3.1155,-3.1172,-3.1169,-3.118,-3.118,-3.1179,-3.1179,0,-3.0583,-3.0619,-3.0676,-3.0732,-3.0747,-3.0778,-3.0826,-3.0857,-3.0886,-3.0933,-3.0946,-3.0991,-3.1039,-3.1074,-3.1136,-3.1153,-3.1205,-3.1212,-3.119,-3.1192,-3.1211,-3.1208,-3.1271,-3.128,-3.1247,-3.1248,-3.1248,0,-3.0605,-3.0637,-3.0696,-3.0723,-3.075,-3.0793,-3.0823,-3.0858,-3.0888,-3.0943,-3.0968,-3.1017,-3.1058,-3.1134,-3.1172,-3.1219,-3.1227,-3.1245,-3.1234,-3.1224,-3.1225,-3.1222,-3.1225,-3.1246,-3.1246,-3.1246,-3.1246,0,-3.0639,-3.0656,-3.0698,-3.0746,-3.0781,-3.0821,-3.0862,-3.0882,-3.0925,-3.0957,-3.1007,-3.1039,-3.1102,-3.1151,-3.1203,-3.1231,-3.1246,-3.125,-3.1257,-3.1248,-3.1233,-3.124,-3.1192,-3.1248,-3.1248,-3.1248,-3.1248,-3.1248,-3.0658,-3.0687,-3.0734,-3.078,-3.0814,-3.0851,-3.0883,-3.0916,-3.0958,-3.1012,-3.1031,-3.1082,-3.1128,-3.1198,-3.1228,-3.1268,-3.1267,-3.1278,-3.1281,-3.1282,-3.1281,-3.1228,-3.1277,-3.1278,-3.1278,-3.1278,-3.1278,0,-3.0692,-3.0723,-3.0766,-3.0821,-3.0858,-3.087,-3.0915,-3.0945,-3.0989,-3.1031,-3.1071,-3.1128,-3.1175,-3.1218,-3.1267,-3.1291,-3.1299,-3.1303,-3.13,-3.1307,-3.1279,-3.1267,-3.1296,-3.1296,-3.1296,-3.1296,-3.1296,-3.1296,-3.0714,-3.0764,-3.0786,-3.0853,-3.0885,-3.0934,-3.0959,-3.0994,-3.1027,-3.1089,-3.1129,-3.1157,-3.1199,-3.1252,-3.1296,-3.1307,-3.1324,-3.1325,-3.1338,-3.1311,-3.1309,-3.1306,-3.1295,-3.1329,-3.1329,-3.1362,-3.1362,-3.1363]},{"header":{"parameterUnit":"m.s-1","parameterCategory":1,"la1":30.2991,"la2":30.254,"lo1":-89.0895,"lo2":-89.0444,"dy":0.0017,"dx":0.0017,"nx":28,"ny":28,"refTime":"2024-04-06T09:00:00:Z","depth":0,"parameterNumber":3,"parameterNumberName":"V-component_of_WINDS"},"data":[0,0,0,0,0,0,0,0,0,0,0,0,0,0,0,0,0,0,0,0,0,0,0,0,0,0,0,0,0,0,0,0,0,0,0,0,0,0,0,0,0,0,0,0,0,0,0,0,0,0,0,0,0,0,0,0,0,0,4.3786,4.3786,0,4.381,4.3811,4.3811,4.3792,4.3792,4.3791,4.379,4.3813,4.3815,4.3816,0,0,0,0,0,0,0,0,0,0,0,0,0,4.3722,4.3723,4.3786,4.3786,4.3786,4.381,4.3811,4.3811,4.3793,4.3792,4.3791,4.379,4.3813,4.3815,4.3816,0,0,0,0,0,0,0,0,0,0,0,0,0,4.3748,4.3723,4.3786,4.378,4.378,4.381,4.3811,4.3811,4.3793,4.3792,4.379,4.3789,4.3812,4.3814,4.3817,4.3853,0,0,4.3823,4.3824,0,0,0,0,0,0,0,0,4.3747,4.3751,4.3781,4.3781,4.378,4.3797,4.3797,4.3825,4.3793,4.3788,4.379,4.3789,4.3809,4.3811,4.3818,4.3854,4.3855,4.3823,4.3824,4.3825,4.3826,0,0,0,0,0,0,0,4.3745,4.3749,4.3795,4.3781,4.3781,4.3776,4.3778,4.3802,4.3805,4.3788,4.3787,4.379,4.3809,4.3816,4.3819,4.3856,4.3823,4.3825,4.3826,4.3827,4.3924,4.3925,0,0,0,0,0,0,4.3744,4.3748,4.3795,4.3796,4.376,4.3778,4.3781,4.3793,4.3804,4.3805,4.3791,4.3789,4.3814,4.3816,4.382,4.3864,4.3825,4.3827,4.3828,4.3923,4.3924,4.3926,0,0,0,0,0,0,4.3742,4.3748,4.3794,4.3772,4.3777,4.3781,4.3794,4.3794,4.3802,4.3807,4.3807,4.3799,4.3813,4.3817,4.3845,4.3864,4.3828,4.383,4.3921,4.3923,4.3925,4.3953,0,0,0,0,0,0,4.3741,4.3748,4.3762,4.3772,4.3778,4.3819,4.3795,4.3795,4.3806,4.3803,4.3814,4.3815,4.3812,4.3842,4.3847,4.3867,4.3831,4.3919,4.3922,4.3924,4.395,4.3955,4.396,0,0,0,0,0,4.3738,4.3768,4.3763,4.3768,4.3796,4.3821,4.3824,4.3821,4.3807,4.3822,4.3825,4.3814,4.3862,4.3846,4.3851,4.3871,4.3918,4.3921,4.3924,4.3948,4.3954,4.396,0,0,0,0,0,0,4.3758,4.3769,4.3763,4.3797,4.3808,4.3817,4.3835,4.3828,4.3843,4.384,4.3835,4.3838,4.3868,4.3872,4.3854,4.3908,4.3888,4.3892,4.3904,4.391,4.3915,4.3913,4.3833,0,0,0,0,0,4.3767,4.3786,4.3794,4.3823,4.3829,4.3832,4.3842,4.3839,4.385,4.3854,4.3859,4.387,4.3888,4.3899,4.3915,4.3951,4.3953,4.3967,4.3972,4.3976,4.398,4.4,4.4007,4.3936,4.3936,4.3936,0,0,4.3784,4.3793,4.3805,4.3828,4.3836,4.3856,4.3835,4.3857,4.3872,4.3857,4.3885,4.389,4.3901,4.3934,4.3948,4.3938,4.4,4.398,4.3984,4.3985,4.4004,4.4011,4.4017,4.3938,4.3938,4.3937,0,0,4.3827,4.3835,4.386,4.3869,4.3883,4.3884,4.389,4.3901,4.3904,4.3932,4.3922,4.3939,4.3969,4.3978,4.3986,4.4034,4.4025,4.4039,4.4065,4.4084,4.409,4.4095,4.4112,4.4118,4.4043,4.4043,4.4043,0,4.3846,4.3877,4.3874,4.3897,4.3908,4.3897,4.3923,4.3931,4.3949,4.3956,4.3945,4.3983,4.399,4.4025,4.4037,4.4044,4.4051,4.4037,4.4089,4.4094,4.4099,4.4115,4.4122,4.4044,4.4044,4.4044,4.4044,0,4.3901,4.3922,4.3941,4.3959,4.3972,4.3996,4.3997,4.4011,4.4007,4.4009,4.4039,4.4047,4.4065,4.4073,4.4069,4.4108,4.4102,4.409,4.407,4.4107,4.4123,4.4129,4.4047,4.4046,4.4046,4.4045,0,0,4.3955,4.3973,4.398,4.3989,4.4003,4.4019,4.4044,4.4062,4.4074,4.4087,4.4107,4.4133,4.4123,4.4133,4.413,4.4147,4.4185,4.4133,4.4134,4.4143,4.4229,4.4237,4.4245,4.4179,4.418,4.4181,4.4228,0,4.3998,4.4041,4.404,4.408,4.41,4.409,4.4111,4.4122,4.4126,4.4143,4.4146,4.4165,4.415,4.4156,4.4173,4.4177,4.4202,4.4173,4.4198,4.4199,4.4195,4.4253,4.4262,4.4305,4.4234,4.4235,4.4236,0,4.4054,4.407,4.4112,4.4125,4.4133,4.4152,4.417,4.4186,4.4199,4.42,4.4212,4.4207,4.4231,4.4211,4.4245,4.4225,4.4235,4.4239,4.424,4.4242,4.4219,4.4257,4.4319,4.4326,4.4245,4.4244,4.4244,0,4.409,4.4122,4.4152,4.416,4.4175,4.4189,4.4196,4.4207,4.4219,4.4234,4.4242,4.4259,4.4269,4.4283,4.4283,4.4268,4.4317,4.4296,4.4319,4.4319,4.4329,4.4329,4.4395,4.4336,4.4336,4.4336,4.4335,0,4.4139,4.4165,4.4169,4.4187,4.4216,4.4215,4.4243,4.4249,4.426,4.4278,4.4271,4.4289,4.4287,4.4306,4.4305,4.4334,4.4338,4.434,4.4339,4.4341,4.434,4.4347,4.4344,4.4337,4.4337,4.4337,4.4336,0,4.4184,4.4187,4.4219,4.4232,4.4236,4.4257,4.4267,4.4284,4.4288,4.4312,4.4317,4.4322,4.4343,4.4345,4.4368,4.4368,4.4403,4.4399,4.4399,4.4398,4.4421,4.4419,4.4493,4.4503,4.4438,4.4439,4.4439,0,4.4215,4.4235,4.425,4.4263,4.4271,4.4291,4.4304,4.4303,4.4316,4.4333,4.4348,4.4369,4.4385,4.4419,4.4425,4.4443,4.444,4.4465,4.4443,4.4444,4.4441,4.444,4.4442,4.4469,4.447,4.447,4.4471,0,4.4269,4.427,4.4289,4.4308,4.4324,4.4339,4.4353,4.4363,4.4365,4.438,4.4402,4.4415,4.444,4.4461,4.4479,4.4486,4.4479,4.4478,4.4484,4.4486,4.4485,4.4486,4.4411,4.4476,4.4476,4.4475,4.4475,4.4475,4.4309,4.4326,4.434,4.4361,4.4372,4.4386,4.4403,4.4409,4.4428,4.4449,4.4447,4.4472,4.4485,4.4509,4.4517,4.4536,4.4528,4.4536,4.4539,4.4541,4.4544,4.4482,4.4539,4.4539,4.4539,4.4539,4.4539,0,4.4363,4.4372,4.4391,4.4412,4.4429,4.4422,4.4437,4.4452,4.4473,4.4486,4.4503,4.4529,4.4549,4.4557,4.4576,4.459,4.4588,4.4595,4.4594,4.4596,4.455,4.4543,4.4597,4.4597,4.4597,4.4597,4.4597,4.4597,4.4394,4.4424,4.4427,4.4462,4.4471,4.4495,4.4505,4.4517,4.4528,4.4557,4.4574,4.4579,4.459,4.4611,4.4629,4.4631,4.4639,4.4648,4.4648,4.4605,4.4599,4.4594,4.4587,4.465,4.465,4.4693,4.4693,4.4694]}]]